Terminal Aerodrome Forecast
Issued by NWS

Home | Current Version | Previous Version | Text Only | Print | Product List | Glossary On
Versions: 1 2 3 4 5 6 7 8 9 10 11 12 13 14 15 16 17 18 19
000
FTUS45 KPSR 021200 AAA
TAFIPL
TAF AMD
KIPL 021245Z 0213/0312 22007KT P6SM FEW020 SCT070 BKN120
     FM022000 25011G20KT P6SM VCSH BKN070
     FM030000 26014KT P6SM FEW070
     FM030300 27008KT P6SM SCT250=

USA.gov is the U.S. government's official web portal to all federal, state and local government web resources and services.